SCP
0 0 0 0 0 0 0 0 0 0 0 0 0 0 0 0 0 0 0 0 0 0 0 0 0 0 0 0 0 0 0 0 0 0 0 0 0 0 0 0 0 0 0 0 0 0 0 0 0 0 0 0 0 0
0 0 0 0 0 0 0 0 0 0 0 0 0 0 0 0 0 0 0 0 0 0 0 0 0 0 0 0 0 0 0 0 0 0 0 0 0 0 0 0 0 0 0 0 0 0 0 0 0 -0 0 0 0 0
0 0 0 0 0 0 0 0 0 0 0 0 0 0 0 0 0 0 0 0 0 0 0 0 0 0 0 0 0 0 0 0 0 0 1 0 0 0 0 0 0 0 0 0 0 0 0 0 0 0 0 0 0 0
-0 0 0 0 0 0 0 0 0 0 0 0 0 -0 0 0 0 0 0 0 0 0 0 0 0 0 0 0 0 0 0 0 0 0 0 0 0 0 0 0 0 0 0 0 0 0 0 0 0 0 0 0 0 0
0 0 0 0 0 0 -0 0 0 0 0 0 0 0 0 0 0 0 0 0 0 0 0 0 0 0 0 0 0 0 0 0 0 0 0 0 0 0 0 0 0 0 0 0 0 0 0 0 0 0 0 0 -0 0
0 0 0 0 0 0 0 0 0 0 0 0 0 -0 0 0 0 0 0 0 0 0 0 0 0 0 0 0 0 0 0 0 0 0 0 0 0 0 0 0 0 0 0 0 0 0 0 0 0 0 0 0 0 0
-0 -0 0 0 0 0 -0 0 0 0 0 0 -0 0 0 0 0 0 0 0 0 0 0 0 0 0 0 0 0 0 0 0 0 0 0 0 0 0 0 0 0 0 0 0 0 0 0 0 0 0 0 0 0 0
-0 0 0 -0 -0 -0 -0 -0 0 0 0 0 0 0 0 0 0 0 0 0 0 0 0 0 0 0 0 0 0 0 0 0 0 0 0 0 0 0 0 0 0 0 0 0 0 0 0 0 0 0 0 0 0 0
0 0 0 0 -0 -0 -0 -0 0 0 -0 0 0 0 0 0 0 0 0 0 0 0 0 0 0 0 0 0 0 0 0 0 0 0 0 0 0 0 0 0 0 0 0 0 0 0 0 0 0 0 0 0 0 0
-0 -0 -0 -0 -0 0 0 0 0 0 -0 0 0 0 0 0 0 0 0 0 0 0 0 0 0 0 0 0 0 0 0 0 0 0 0 0 0 0 0 0 0 0 0 0 0 0 0 0 0 0 0 0 0 0
0 0 -0 0 0 0 0 0 0 0 0 0 0 0 0 0 0 0 0 0 0 0 0 0 0 0 0 0 0 0 0 0 0 0 0 0 0 0 0 0 0 0 0 0 0 0 0 0 0 0 0 0 0 0
0 0 0 0 0 0 0 0 0 0 0 0 0 0 0 0 0 0 0 0 0 0 0 0 0 0 0 0 0 0 0 0 0 0 0 0 0 0 0 0 0 0 0 0 0 0 0 0 0 0 0 0 0 0
-0 0 0 0 0 0 0 0 0 0 0 0 0 0 0 0 0 0 0 0 0 0 0 0 0 0 0 0 0 0 0 0 0 0 0 0 0 0 0 0 0 0 0 0 0 0 0 0 0 0 0 0 0 0
-0 -0 0 0 0 0 0 0 0 0 0 0 0 0 0 0 0 0 0 0 0 0 0 0 0 0 0 0 0 0 0 0 0 0 0 0 0 0 0 0 0 0 0 0 0 0 0 0 0 0 0 0 0 0
-0 -0 -0 0 0 0 0 0 0 0 0 0 0 0 0 0 0 0 0 0 0 0 0 0 0 0 0 0 0 0 0 0 0 0 0 0 0 0 0 0 0 0 0 0 0 0 0 0 0 0 0 0 0 0
-0 0 -0 -0 -0 -0 0 0 0 0 0 0 0 0 0 0 0 0 0 0 0 0 0 0 0 0 0 0 0 0 0 0 0 0 0 0 0 0 0 0 0 0 0 0 0 0 0 0 0 0 0 0 0 0
-0 0 -0 -0 0 0 0 0 0 0 0 0 0 0 0 0 0 0 0 0 0 0 0 0 0 0 0 0 0 0 0 0 0 0 0 0 0 0 0 0 0 0 0 0 0 0 0 0 0 0 0 0 0 0
0 0 -0 0 0 0 0 0 0 0 0 0 0 0 0 0 0 0 0 0 0 0 0 0 0 0 0 0 0 0 0 0 0 0 0 0 0 0 0 0 0 0 0 0 0 0 0 0 0 0 0 0 0 0
0 -0 0 0 0 0 0 0 0 0 0 0 0 0 0 0 0 0 0 0 0 0 0 0 0 0 0 0 0 0 0 0 0 0 0 0 0 0 0 0 0 0 0 0 0 0 0 0 0 0 0 0 0 0
0 -0 -0 0 0 0 0 0 0 0 0 0 0 0 0 0 0 0 0 0 0 0 0 0 0 0 0 0 0 0 0 0 0 0 0 0 0 0 0 0 0 0 0 0 0 0 0 0 0 0 0 0 0 0
0 0 0 0 0 0 0 0 0 0 0 0 0 0 0 0 0 0 0 0 0 0 0 0 0 0 0 0 0 0 0 0 0 0 0 0 0 0 0 0 0 0 0 0 0 0 0 0 0 0 0 0 0 0
0 0 0 0 0 0 0 0 0 0 0 0 0 0 0 0 0 0 0 0 0 0 0 0 0 0 0 0 0 0 0 0 0 0 0 0 0 0 0 0 0 0 0 0 0 0 0 0 0 0 0 0 0 0
0 0 0 0 0 0 0 0 0 0 0 0 0 0 0 0 0 0 0 0 0 0 0 0 0 0 0 0 0 0 0 0 0 0 0 0 0 0 0 0 0 0 0 0 0 0 0 0 0 0 0 0 0 0
0 0 0 0 0 0 0 0 0 0 0 0 0 0 0 0 0 0 0 0 0 0 0 0 0 0 0 0 0 0 0 0 0 0 0 0 0 0 0 0 0 0 0 0 0 0 0 0 0 0 0 0 0 0
0 0 0 0 0 0 0 0 0 0 0 0 0 0 0 0 0 0 0 0 0 0 0 0 0 0 0 0 0 0 0 0 0 0 0 0 0 0 0 0 0 0 0 0 0 0 0 0 0 0 0 0 0 0
0 0 0 0 0 0 0 0 0 0 0 0 0 0 0 0 0 0 0 0 0 0 0 0 0 0 0 0 0 0 0 0 0 0 0 0 0 0 0 0 0 0 0 0 0 0 0 0 0 0 0 0 0 0
0 0 0 0 0 0 0 0 0 0 0 0 0 0 0 0 0 0 0 0 0 0 0 0 0 0 0 0 0 0 0 0 0 0 0 0 0 0 0 0 0 0 0 0 0 0 0 0 0 0 0 0 0 0
0 0 0 0 0 0 0 0 0 0 0 0 0 0 0 0 0 0 0 0 0 0 0 0 0 0 0 0 0 0 0 0 0 0 0 0 0 0 0 0 0 0 0 0 0 0 0 0 0 0 0 0 0 0
0 0 0 0 0 0 0 0 0 0 0 0 0 0 0 0 0 0 0 0 0 0 0 0 0 0 0 0 0 0 0 0 0 0 0 0 0 0 0 0 0 0 0 0 0 0 0 0 0 0 0 0 0 0
0 0 0 0 0 0 0 0 0 0 0 0 0 0 0 0 0 0 0 0 0 0 0 0 0 0 0 0 0 0 0 0 0 0 0 0 0 0 0 0 0 0 0 0 0 0 0 0 0 0 0 0 0 0
0 0 0 0 0 0 0 0 0 0 0 0 0 0 0 0 0 0 0 0 0 0 0 0 0 0 0 0 0 -0 -0 0 0 0 0 0 0 0 0 0 0 0 0 0 0 0 0 0 0 0 0 0 0 0
0 0 0 0 0 0 0 0 0 0 0 0 0 0 0 0 0 0 0 0 0 0 0 0 0 -0 -0 -0 -0 -0 -0 0 0 0 0 0 0 0 0 0 0 0 0 0 0 0 0 0 0 0 0 0 0 0
0 0 0 0 0 0 0 0 0 0 0 0 0 0 0 0 0 0 0 0 0 0 0 0 0 0 0 0 0 0 0 0 0 0 0 0 0 0 0 0 0 0 0 0 0 0 0 0 0 0 0 0 0 0
Wind_Speed_500mb
61 62 66 67 65 69 71 71 69 76 73 79 79 75 84 87 84 89 83 86 80 46 39 46 43 29 28 43 17 16 11 6 12 16 12 11 13 13 13 20 5 13 9 10 13 13 19 8 8 7 7 22 21 30
62 62 67 69 68 66 69 70 75 77 80 80 79 77 91 88 87 89 62 69 92 53 20 53 41 48 37 34 27 30 4 9 18 10 11 6 10 7 18 14 16 18 21 13 9 4 7 5 14 5 13 32 40 31
65 62 59 54 60 66 66 69 69 77 81 88 83 85 78 90 89 87 69 76 72 46 38 36 49 67 54 44 35 23 20 20 16 15 4 5 14 2 16 22 21 10 10 7 1 11 20 29 30 38 43 44 45 56
67 66 64 61 65 69 74 74 72 73 83 86 88 86 79 91 91 86 84 77 86 34 14 18 53 43 49 63 66 56 36 23 28 26 12 8 11 14 18 17 19 19 11 21 23 31 28 45 53 55 38 38 62 63
75 74 73 73 73 78 81 78 74 74 78 82 91 94 86 96 92 84 92 86 94 61 13 15 31 42 48 69 63 50 43 40 21 13 10 14 22 21 26 21 23 40 35 25 26 44 34 39 58 40 35 54 62 61
77 77 77 78 80 77 77 77 74 77 77 77 82 98 73 91 91 84 22 90 91 69 16 9 18 29 46 38 47 50 45 35 32 18 15 21 39 23 14 26 51 78 64 58 48 63 62 60 69 62 59 78 67 65
69 72 74 73 68 70 76 84 90 82 78 72 77 81 70 92 93 97 15 41 98 65 22 10 10 21 38 36 26 25 30 23 25 15 16 32 36 30 19 30 59 53 48 67 75 75 61 66 53 55 50 37 41 42
49 53 60 69 78 75 73 62 64 74 74 68 77 75 89 91 82 58 26 26 89 58 19 9 7 11 36 18 18 24 20 23 18 18 18 18 25 26 16 43 72 67 65 72 73 62 71 64 54 46 41 31 46 50
38 53 63 68 77 67 69 70 70 63 57 56 62 81 75 63 32 50 67 36 74 27 15 11 17 12 29 16 15 15 18 10 16 11 13 15 15 15 13 22 21 12 11 32 46 41 43 55 61 52 49 46 48 49
45 46 41 15 17 47 52 57 57 66 68 79 75 24 11 25 27 60 39 47 32 20 15 6 14 9 29 25 16 16 15 8 8 13 13 12 24 21 7 11 10 16 19 28 31 27 27 25 26 29 32 34 39 44
30 31 38 33 46 55 60 65 68 79 76 53 13 14 44 66 36 21 10 12 11 10 15 12 19 14 19 12 9 16 8 7 7 7 8 7 13 7 9 11 17 21 22 22 23 24 27 29 34 34 35 34 32 33
24 31 40 42 46 41 43 52 61 55 32 22 30 49 35 14 8 8 5 5 1 7 7 13 15 18 16 13 6 10 8 6 12 7 7 7 4 7 13 18 21 21 22 22 25 28 30 31 33 34 37 37 35 34
35 37 35 33 32 35 36 42 37 41 47 44 18 10 8 3 7 10 8 6 8 9 15 15 10 13 10 8 7 7 12 11 6 8 7 5 6 11 24 26 24 23 24 23 22 24 26 28 28 30 31 30 30 29
21 17 20 23 24 25 22 26 39 42 24 12 6 9 4 7 5 3 4 10 7 10 28 27 15 7 9 9 6 9 6 4 9 8 10 5 9 22 25 26 29 30 28 26 25 24 24 24 25 24 23 22 21 20
35 41 19 8 18 25 28 36 36 29 13 10 9 7 6 8 15 6 6 15 10 22 16 15 12 7 5 7 6 6 6 10 11 7 4 6 17 23 26 27 27 28 27 26 26 24 22 20 19 18 17 16 14 13
21 36 44 23 29 38 43 47 39 18 13 11 16 7 8 9 6 5 12 13 16 20 15 11 7 7 6 6 11 16 8 12 5 4 5 12 18 23 26 26 26 25 22 21 20 19 18 15 12 10 7 5 7 12
26 37 32 35 39 44 46 55 24 16 14 9 8 14 7 14 12 7 7 8 16 8 4 4 11 9 4 7 8 3 4 5 5 4 8 13 20 23 23 22 22 21 19 17 14 11 9 4 3 7 7 11 13 16
33 22 19 21 23 23 34 23 16 15 15 16 5 8 10 13 8 11 12 13 7 6 4 4 4 7 8 7 6 5 6 5 1 3 8 13 14 16 17 17 16 14 12 9 7 6 8 11 13 18 21 23 24 25
15 14 13 11 9 10 12 16 15 12 14 9 13 15 11 15 30 22 18 16 15 13 10 2 3 4 4 4 4 9 8 6 5 2 6 11 11 10 11 10 9 8 5 6 8 11 13 15 20 22 24 24 27 29
4 2 4 8 10 12 13 16 14 16 8 8 10 5 9 12 12 23 20 12 9 7 7 4 4 4 5 4 7 10 8 3 1 2 2 8 7 5 4 4 5 8 9 12 14 18 18 20 23 22 22 22 23 24
4 7 4 5 15 22 16 11 15 12 13 11 8 8 10 12 12 13 15 14 10 9 3 3 5 4 4 6 6 6 5 5 5 3 4 6 3 2 4 5 7 7 10 12 14 16 17 19 20 20 18 17 16 14
7 12 11 14 15 14 19 20 14 10 9 9 8 8 9 6 8 9 11 11 7 3 1 3 3 3 5 6 6 6 6 6 6 5 5 6 5 6 7 9 10 10 12 13 13 13 13 14 14 13 10 8 7 5
12 13 14 14 12 15 8 11 8 9 6 4 6 6 5 3 4 8 6 3 2 1 2 3 3 4 6 6 5 6 6 7 7 8 9 9 10 11 11 12 13 12 12 11 10 10 8 7 5 2 0 2 5 8
13 14 19 16 22 7 6 12 10 8 8 5 4 5 4 5 8 4 2 0 2 1 2 4 5 5 6 6 5 5 7 10 10 10 12 12 12 13 13 12 12 10 8 7 6 3 1 3 5 7 9 11 13 16
11 24 17 14 20 9 11 7 9 6 6 6 4 5 5 8 3 2 2 1 2 1 3 6 7 6 6 6 6 7 11 13 13 13 15 15 14 14 13 11 9 7 5 3 5 5 8 11 13 14 16 18 22 25
17 20 13 13 10 9 7 6 8 6 4 4 5 5 6 1 2 4 1 3 5 5 6 7 7 9 9 9 10 10 12 14 13 12 14 14 14 13 10 8 7 7 7 9 12 13 14 17 19 21 23 26 30 36
11 10 12 16 6 5 8 8 5 5 6 4 4 5 2 0 5 0 3 6 6 6 8 9 9 9 9 10 11 12 13 14 13 12 11 12 12 11 11 11 11 11 13 15 17 18 21 24 27 30 32 31 33 38
10 14 8 15 11 13 5 4 5 4 2 1 2 2 3 4 3 3 7 8 8 9 10 10 11 12 13 13 12 12 12 11 11 10 11 12 13 14 15 17 17 17 18 20 23 26 29 32 34 36 38 39 36 37
10 10 6 8 6 8 7 2 1 2 2 2 2 2 4 7 9 7 10 11 10 11 12 12 12 13 14 14 14 14 14 14 14 15 15 16 16 15 15 17 18 21 24 26 28 31 33 36 38 40 42 43 43 45
8 9 4 4 5 4 3 3 4 3 4 6 6 7 9 8 5 9 12 12 13 13 13 14 14 14 14 14 14 14 15 17 19 20 20 19 20 19 20 23 25 28 30 31 32 33 35 40 42 45 50 53 54 57
6 4 4 5 4 1 5 7 5 5 4 5 6 8 9 8 7 8 13 15 16 16 17 17 16 14 15 16 16 16 16 17 18 19 21 21 22 23 24 26 29 31 33 36 39 41 44 47 50 53 54 56 56 60
6 6 3 3 0 2 5 7 4 4 4 5 5 6 7 7 7 5 8 17 19 19 16 17 16 14 18 18 18 18 18 18 19 21 22 22 23 25 28 30 32 35 39 43 45 48 51 55 57 59 62 65 66 68
2 4 4 2 1 2 5 11 2 5 6 5 5 5 5 6 9 6 7 13 15 16 17 16 16 17 17 18 18 19 20 20 21 22 24 24 25 28 31 33 37 40 45 50 52 55 57 59 63 64 66 69 71 72
Wind_Direction_500mb
271 272 270 268 265 262 261 254 254 250 250 246 248 228 232 227 228 213 212 221 208 219 233 221 220 208 192 200 197 157 141 177 168 202 208 200 231 215 234 253 281 223 219 207 219 243 250 354 65 222 342 323 314 302
270 276 272 267 264 263 258 256 254 251 247 247 247 246 223 225 225 215 213 215 211 209 230 220 223 217 207 201 205 182 205 148 180 198 210 219 218 211 220 247 209 239 228 247 246 269 186 206 144 159 303 290 295 276
269 270 267 267 266 260 258 256 259 252 245 241 241 247 220 222 218 219 214 211 198 204 213 216 215 213 212 217 211 207 224 225 236 239 287 254 240 180 228 232 253 244 160 227 217 226 243 231 259 286 277 280 291 304
273 273 268 270 271 265 260 256 257 252 244 236 235 246 215 219 215 218 212 197 189 178 204 195 216 210 220 222 219 222 226 229 232 239 249 254 247 220 251 268 266 250 210 238 247 255 260 266 271 278 262 275 300 290
266 266 268 270 269 266 258 255 250 251 241 234 231 234 229 212 211 212 213 209 207 189 168 157 197 210 217 215 212 224 214 220 217 219 229 244 251 255 256 265 257 243 246 246 252 264 266 273 285 263 275 288 295 285
263 264 266 270 270 263 255 249 246 246 236 231 227 235 212 206 202 201 194 198 198 199 149 159 195 201 208 203 210 213 214 219 225 217 233 244 246 245 253 246 245 249 251 253 260 264 266 269 270 268 280 288 281 284
256 262 266 267 263 259 256 250 249 233 231 219 225 218 195 201 208 193 204 179 194 185 161 144 168 182 186 174 177 187 192 202 210 224 232 246 247 237 253 263 262 265 259 250 253 260 267 263 258 272 274 274 279 274
261 265 265 265 266 258 250 237 222 216 212 220 216 192 194 201 199 202 180 152 182 178 172 160 108 150 175 167 180 183 182 196 213 224 235 239 254 228 248 251 263 266 260 261 261 262 259 260 262 266 255 270 273 271
284 283 277 276 269 254 233 221 209 211 205 210 183 183 197 181 176 175 192 169 178 176 152 174 155 166 169 168 161 164 181 199 210 218 228 220 234 229 262 264 284 318 292 275 268 266 267 259 259 262 273 276 270 274
301 290 298 172 83 184 207 191 190 193 201 181 154 153 107 161 156 162 158 173 174 195 157 146 118 132 167 170 169 159 174 213 220 218 214 231 241 244 347 335 320 296 294 290 292 285 272 278 277 276 278 274 271 276
333 45 128 115 102 106 111 130 126 139 139 136 91 81 131 136 133 170 175 172 143 147 156 134 160 134 177 161 153 200 173 179 228 198 220 234 253 97 340 316 302 295 294 294 290 286 288 292 294 290 287 286 284 281
40 66 95 100 99 105 114 128 135 132 121 122 123 129 117 105 121 159 122 108 225 105 129 153 129 126 150 150 148 170 188 181 234 139 189 236 100 35 335 330 325 320 307 296 292 291 287 285 284 287 288 290 290 287
68 72 78 93 107 108 121 139 128 123 123 116 111 88 104 71 139 155 141 104 151 158 148 148 122 120 121 149 121 163 192 213 123 207 222 254 80 344 337 333 328 328 320 311 301 295 292 290 292 288 286 285 285 277
75 83 100 112 123 125 126 141 160 143 129 68 70 91 47 110 94 56 139 111 110 119 120 125 111 125 119 158 143 194 167 188 214 214 227 94 1 333 337 336 331 329 328 322 315 309 305 300 297 297 294 289 277 261
65 44 61 100 145 153 157 168 161 151 73 66 19 71 71 112 66 75 69 103 96 119 105 95 82 109 129 155 191 107 186 224 214 220 76 23 334 334 334 335 332 330 328 326 324 321 313 313 309 307 302 290 270 244
33 56 53 93 137 167 175 178 155 121 66 63 48 100 102 94 103 65 63 81 96 118 103 83 115 148 171 183 184 208 209 215 146 71 0 334 334 335 335 334 332 331 328 326 323 320 320 319 313 306 299 269 224 197
73 54 41 89 114 110 123 141 97 63 73 61 64 56 31 53 88 114 90 73 125 122 144 149 154 180 88 204 211 259 222 77 67 10 340 335 334 335 337 337 337 337 338 338 338 340 343 358 91 114 128 121 134 140
70 64 79 73 102 95 68 64 83 74 69 45 92 31 54 52 84 75 70 67 75 71 29 101 116 177 181 202 193 127 131 132 146 328 335 340 344 344 344 343 344 345 346 356 16 63 102 117 125 113 115 114 119 121
55 89 89 70 74 56 61 49 48 88 64 76 74 58 67 73 57 61 64 64 81 95 106 100 141 185 138 70 88 130 139 140 128 331 328 344 351 358 2 3 6 14 25 70 87 106 113 116 115 116 116 119 118 113
317 32 80 56 47 55 65 41 51 79 72 68 59 44 61 63 60 50 50 56 67 53 39 56 71 79 64 97 129 142 159 159 128 42 296 330 346 7 19 38 66 83 92 101 116 115 114 116 115 111 112 114 113 111
185 194 193 111 59 61 80 57 61 73 105 93 93 52 59 54 41 34 22 29 40 43 73 54 97 136 166 176 181 183 190 199 206 214 303 312 320 112 114 120 119 125 126 120 119 121 121 114 110 109 109 109 108 103
119 138 108 76 67 63 67 50 80 82 74 90 66 56 53 47 31 17 17 39 56 37 100 121 114 129 152 175 184 184 194 209 221 241 214 202 180 158 161 146 136 139 133 129 121 113 112 110 106 104 100 94 83 65
109 108 64 53 80 54 44 55 78 45 84 69 69 73 43 55 9 8 77 59 99 39 182 172 182 182 180 181 188 199 205 201 207 196 195 194 188 171 159 149 143 140 133 129 126 119 115 111 112 112 58 331 326 330
80 55 36 41 38 61 46 38 49 60 73 55 75 105 59 15 354 36 78 352 261 304 215 197 186 176 180 185 195 195 185 186 184 182 182 175 176 166 161 155 149 150 150 154 149 148 284 303 302 307 314 315 313 313
83 15 22 16 24 35 40 31 12 51 68 20 66 61 28 354 2 352 305 307 226 212 188 178 187 202 205 201 189 181 180 177 174 180 177 172 174 171 171 167 176 176 187 224 266 281 297 298 300 306 310 312 313 312
67 16 35 9 18 37 10 59 34 41 30 61 44 334 355 6 310 258 239 213 194 188 181 178 177 178 189 194 187 176 173 174 172 176 186 182 180 189 189 196 222 243 258 275 285 290 294 299 303 306 308 309 311 309
58 11 26 31 34 61 77 65 62 50 60 51 1 1 8 2 265 250 241 202 189 185 184 184 184 187 187 182 182 180 175 174 180 183 195 204 213 221 233 245 257 272 277 285 292 298 301 301 303 304 306 307 308 305
70 35 49 2 44 39 92 48 34 45 27 24 310 252 184 218 276 266 210 195 189 186 184 186 187 185 182 179 179 182 188 195 204 207 215 231 241 246 253 263 271 282 280 285 293 299 302 303 304 303 303 306 309 306
48 12 27 30 51 51 51 65 296 269 254 198 259 270 267 258 269 248 207 198 191 189 188 187 187 191 196 199 200 203 208 215 225 234 245 258 265 268 269 272 276 282 285 289 294 298 300 302 303 304 306 307 307 308
25 19 78 62 77 22 7 359 357 322 257 246 268 283 284 284 280 211 206 204 203 200 199 201 200 203 212 223 227 230 238 244 246 249 255 261 266 272 273 277 281 285 290 295 297 297 297 299 300 299 300 302 303 303
0 28 76 58 94 52 328 325 311 307 277 275 267 260 279 295 279 244 223 214 212 213 215 215 216 218 230 240 247 250 254 256 255 257 260 264 271 278 282 285 287 289 293 297 299 301 302 301 301 301 301 300 301 301
30 47 55 89 266 293 331 344 268 272 267 264 266 277 295 300 279 244 231 220 224 227 225 231 236 243 249 249 252 255 257 260 263 267 271 275 277 279 282 286 291 295 298 299 300 300 300 300 299 299 300 301 303 305
59 57 57 52 354 313 319 346 311 295 254 258 260 273 270 264 256 256 242 232 229 229 233 235 237 245 252 254 256 259 264 267 270 275 279 282 286 288 289 292 294 296 297 298 297 297 297 297 297 299 301 304 306 307
Wind_Speed_850mb
61 62 66 67 65 69 71 71 69 76 73 79 79 75 84 87 84 89 83 86 80 46 39 46 43 29 28 43 17 16 11 6 12 16 12 11 13 13 13 20 5 13 9 10 13 13 19 8 8 7 7 22 21 30
62 62 67 69 68 66 69 70 75 77 80 80 79 77 91 88 87 89 62 69 92 53 20 53 41 48 37 34 27 30 4 9 18 10 11 6 10 7 18 14 16 18 21 13 9 4 7 5 14 5 13 32 40 31
65 62 59 54 60 66 66 69 69 77 81 88 83 85 78 90 89 87 69 76 72 46 38 36 49 67 54 44 35 23 20 20 16 15 4 5 14 2 16 22 21 10 10 7 1 11 20 29 30 38 43 44 45 56
67 66 64 61 65 69 74 74 72 73 83 86 88 86 79 91 91 86 84 77 86 34 14 18 53 43 49 63 66 56 36 23 28 26 12 8 11 14 18 17 19 19 11 21 23 31 28 45 53 55 38 38 62 63
75 74 73 73 73 78 81 78 74 74 78 82 91 94 86 96 92 84 92 86 94 61 13 15 31 42 48 69 63 50 43 40 21 13 10 14 22 21 26 21 23 40 35 25 26 44 34 39 58 40 35 54 62 61
77 77 77 78 80 77 77 77 74 77 77 77 82 98 73 91 91 84 22 90 91 69 16 9 18 29 46 38 47 50 45 35 32 18 15 21 39 23 14 26 51 78 64 58 48 63 62 60 69 62 59 78 67 65
69 72 74 73 68 70 76 84 90 82 78 72 77 81 70 92 93 97 15 41 98 65 22 10 10 21 38 36 26 25 30 23 25 15 16 32 36 30 19 30 59 53 48 67 75 75 61 66 53 55 50 37 41 42
49 53 60 69 78 75 73 62 64 74 74 68 77 75 89 91 82 58 26 26 89 58 19 9 7 11 36 18 18 24 20 23 18 18 18 18 25 26 16 43 72 67 65 72 73 62 71 64 54 46 41 31 46 50
38 53 63 68 77 67 69 70 70 63 57 56 62 81 75 63 32 50 67 36 74 27 15 11 17 12 29 16 15 15 18 10 16 11 13 15 15 15 13 22 21 12 11 32 46 41 43 55 61 52 49 46 48 49
45 46 41 15 17 47 52 57 57 66 68 79 75 24 11 25 27 60 39 47 32 20 15 6 14 9 29 25 16 16 15 8 8 13 13 12 24 21 7 11 10 16 19 28 31 27 27 25 26 29 32 34 39 44
30 31 38 33 46 55 60 65 68 79 76 53 13 14 44 66 36 21 10 12 11 10 15 12 19 14 19 12 9 16 8 7 7 7 8 7 13 7 9 11 17 21 22 22 23 24 27 29 34 34 35 34 32 33
24 31 40 42 46 41 43 52 61 55 32 22 30 49 35 14 8 8 5 5 1 7 7 13 15 18 16 13 6 10 8 6 12 7 7 7 4 7 13 18 21 21 22 22 25 28 30 31 33 34 37 37 35 34
35 37 35 33 32 35 36 42 37 41 47 44 18 10 8 3 7 10 8 6 8 9 15 15 10 13 10 8 7 7 12 11 6 8 7 5 6 11 24 26 24 23 24 23 22 24 26 28 28 30 31 30 30 29
21 17 20 23 24 25 22 26 39 42 24 12 6 9 4 7 5 3 4 10 7 10 28 27 15 7 9 9 6 9 6 4 9 8 10 5 9 22 25 26 29 30 28 26 25 24 24 24 25 24 23 22 21 20
35 41 19 8 18 25 28 36 36 29 13 10 9 7 6 8 15 6 6 15 10 22 16 15 12 7 5 7 6 6 6 10 11 7 4 6 17 23 26 27 27 28 27 26 26 24 22 20 19 18 17 16 14 13
21 36 44 23 29 38 43 47 39 18 13 11 16 7 8 9 6 5 12 13 16 20 15 11 7 7 6 6 11 16 8 12 5 4 5 12 18 23 26 26 26 25 22 21 20 19 18 15 12 10 7 5 7 12
26 37 32 35 39 44 46 55 24 16 14 9 8 14 7 14 12 7 7 8 16 8 4 4 11 9 4 7 8 3 4 5 5 4 8 13 20 23 23 22 22 21 19 17 14 11 9 4 3 7 7 11 13 16
33 22 19 21 23 23 34 23 16 15 15 16 5 8 10 13 8 11 12 13 7 6 4 4 4 7 8 7 6 5 6 5 1 3 8 13 14 16 17 17 16 14 12 9 7 6 8 11 13 18 21 23 24 25
15 14 13 11 9 10 12 16 15 12 14 9 13 15 11 15 30 22 18 16 15 13 10 2 3 4 4 4 4 9 8 6 5 2 6 11 11 10 11 10 9 8 5 6 8 11 13 15 20 22 24 24 27 29
4 2 4 8 10 12 13 16 14 16 8 8 10 5 9 12 12 23 20 12 9 7 7 4 4 4 5 4 7 10 8 3 1 2 2 8 7 5 4 4 5 8 9 12 14 18 18 20 23 22 22 22 23 24
4 7 4 5 15 22 16 11 15 12 13 11 8 8 10 12 12 13 15 14 10 9 3 3 5 4 4 6 6 6 5 5 5 3 4 6 3 2 4 5 7 7 10 12 14 16 17 19 20 20 18 17 16 14
7 12 11 14 15 14 19 20 14 10 9 9 8 8 9 6 8 9 11 11 7 3 1 3 3 3 5 6 6 6 6 6 6 5 5 6 5 6 7 9 10 10 12 13 13 13 13 14 14 13 10 8 7 5
12 13 14 14 12 15 8 11 8 9 6 4 6 6 5 3 4 8 6 3 2 1 2 3 3 4 6 6 5 6 6 7 7 8 9 9 10 11 11 12 13 12 12 11 10 10 8 7 5 2 0 2 5 8
13 14 19 16 22 7 6 12 10 8 8 5 4 5 4 5 8 4 2 0 2 1 2 4 5 5 6 6 5 5 7 10 10 10 12 12 12 13 13 12 12 10 8 7 6 3 1 3 5 7 9 11 13 16
11 24 17 14 20 9 11 7 9 6 6 6 4 5 5 8 3 2 2 1 2 1 3 6 7 6 6 6 6 7 11 13 13 13 15 15 14 14 13 11 9 7 5 3 5 5 8 11 13 14 16 18 22 25
17 20 13 13 10 9 7 6 8 6 4 4 5 5 6 1 2 4 1 3 5 5 6 7 7 9 9 9 10 10 12 14 13 12 14 14 14 13 10 8 7 7 7 9 12 13 14 17 19 21 23 26 30 36
11 10 12 16 6 5 8 8 5 5 6 4 4 5 2 0 5 0 3 6 6 6 8 9 9 9 9 10 11 12 13 14 13 12 11 12 12 11 11 11 11 11 13 15 17 18 21 24 27 30 32 31 33 38
10 14 8 15 11 13 5 4 5 4 2 1 2 2 3 4 3 3 7 8 8 9 10 10 11 12 13 13 12 12 12 11 11 10 11 12 13 14 15 17 17 17 18 20 23 26 29 32 34 36 38 39 36 37
10 10 6 8 6 8 7 2 1 2 2 2 2 2 4 7 9 7 10 11 10 11 12 12 12 13 14 14 14 14 14 14 14 15 15 16 16 15 15 17 18 21 24 26 28 31 33 36 38 40 42 43 43 45
8 9 4 4 5 4 3 3 4 3 4 6 6 7 9 8 5 9 12 12 13 13 13 14 14 14 14 14 14 14 15 17 19 20 20 19 20 19 20 23 25 28 30 31 32 33 35 40 42 45 50 53 54 57
6 4 4 5 4 1 5 7 5 5 4 5 6 8 9 8 7 8 13 15 16 16 17 17 16 14 15 16 16 16 16 17 18 19 21 21 22 23 24 26 29 31 33 36 39 41 44 47 50 53 54 56 56 60
6 6 3 3 0 2 5 7 4 4 4 5 5 6 7 7 7 5 8 17 19 19 16 17 16 14 18 18 18 18 18 18 19 21 22 22 23 25 28 30 32 35 39 43 45 48 51 55 57 59 62 65 66 68
2 4 4 2 1 2 5 11 2 5 6 5 5 5 5 6 9 6 7 13 15 16 17 16 16 17 17 18 18 19 20 20 21 22 24 24 25 28 31 33 37 40 45 50 52 55 57 59 63 64 66 69 71 72
Wind_Direction_850mb
271 272 270 268 265 262 261 254 254 250 250 246 248 228 232 227 228 213 212 221 208 219 233 221 220 208 192 200 197 157 141 177 168 202 208 200 231 215 234 253 281 223 219 207 219 243 250 354 65 222 342 323 314 302
270 276 272 267 264 263 258 256 254 251 247 247 247 246 223 225 225 215 213 215 211 209 230 220 223 217 207 201 205 182 205 148 180 198 210 219 218 211 220 247 209 239 228 247 246 269 186 206 144 159 303 290 295 276
269 270 267 267 266 260 258 256 259 252 245 241 241 247 220 222 218 219 214 211 198 204 213 216 215 213 212 217 211 207 224 225 236 239 287 254 240 180 228 232 253 244 160 227 217 226 243 231 259 286 277 280 291 304
273 273 268 270 271 265 260 256 257 252 244 236 235 246 215 219 215 218 212 197 189 178 204 195 216 210 220 222 219 222 226 229 232 239 249 254 247 220 251 268 266 250 210 238 247 255 260 266 271 278 262 275 300 290
266 266 268 270 269 266 258 255 250 251 241 234 231 234 229 212 211 212 213 209 207 189 168 157 197 210 217 215 212 224 214 220 217 219 229 244 251 255 256 265 257 243 246 246 252 264 266 273 285 263 275 288 295 285
263 264 266 270 270 263 255 249 246 246 236 231 227 235 212 206 202 201 194 198 198 199 149 159 195 201 208 203 210 213 214 219 225 217 233 244 246 245 253 246 245 249 251 253 260 264 266 269 270 268 280 288 281 284
256 262 266 267 263 259 256 250 249 233 231 219 225 218 195 201 208 193 204 179 194 185 161 144 168 182 186 174 177 187 192 202 210 224 232 246 247 237 253 263 262 265 259 250 253 260 267 263 258 272 274 274 279 274
261 265 265 265 266 258 250 237 222 216 212 220 216 192 194 201 199 202 180 152 182 178 172 160 108 150 175 167 180 183 182 196 213 224 235 239 254 228 248 251 263 266 260 261 261 262 259 260 262 266 255 270 273 271
284 283 277 276 269 254 233 221 209 211 205 210 183 183 197 181 176 175 192 169 178 176 152 174 155 166 169 168 161 164 181 199 210 218 228 220 234 229 262 264 284 318 292 275 268 266 267 259 259 262 273 276 270 274
301 290 298 172 83 184 207 191 190 193 201 181 154 153 107 161 156 162 158 173 174 195 157 146 118 132 167 170 169 159 174 213 220 218 214 231 241 244 347 335 320 296 294 290 292 285 272 278 277 276 278 274 271 276
333 45 128 115 102 106 111 130 126 139 139 136 91 81 131 136 133 170 175 172 143 147 156 134 160 134 177 161 153 200 173 179 228 198 220 234 253 97 340 316 302 295 294 294 290 286 288 292 294 290 287 286 284 281
40 66 95 100 99 105 114 128 135 132 121 122 123 129 117 105 121 159 122 108 225 105 129 153 129 126 150 150 148 170 188 181 234 139 189 236 100 35 335 330 325 320 307 296 292 291 287 285 284 287 288 290 290 287
68 72 78 93 107 108 121 139 128 123 123 116 111 88 104 71 139 155 141 104 151 158 148 148 122 120 121 149 121 163 192 213 123 207 222 254 80 344 337 333 328 328 320 311 301 295 292 290 292 288 286 285 285 277
75 83 100 112 123 125 126 141 160 143 129 68 70 91 47 110 94 56 139 111 110 119 120 125 111 125 119 158 143 194 167 188 214 214 227 94 1 333 337 336 331 329 328 322 315 309 305 300 297 297 294 289 277 261
65 44 61 100 145 153 157 168 161 151 73 66 19 71 71 112 66 75 69 103 96 119 105 95 82 109 129 155 191 107 186 224 214 220 76 23 334 334 334 335 332 330 328 326 324 321 313 313 309 307 302 290 270 244
33 56 53 93 137 167 175 178 155 121 66 63 48 100 102 94 103 65 63 81 96 118 103 83 115 148 171 183 184 208 209 215 146 71 0 334 334 335 335 334 332 331 328 326 323 320 320 319 313 306 299 269 224 197
73 54 41 89 114 110 123 141 97 63 73 61 64 56 31 53 88 114 90 73 125 122 144 149 154 180 88 204 211 259 222 77 67 10 340 335 334 335 337 337 337 337 338 338 338 340 343 358 91 114 128 121 134 140
70 64 79 73 102 95 68 64 83 74 69 45 92 31 54 52 84 75 70 67 75 71 29 101 116 177 181 202 193 127 131 132 146 328 335 340 344 344 344 343 344 345 346 356 16 63 102 117 125 113 115 114 119 121
55 89 89 70 74 56 61 49 48 88 64 76 74 58 67 73 57 61 64 64 81 95 106 100 141 185 138 70 88 130 139 140 128 331 328 344 351 358 2 3 6 14 25 70 87 106 113 116 115 116 116 119 118 113
317 32 80 56 47 55 65 41 51 79 72 68 59 44 61 63 60 50 50 56 67 53 39 56 71 79 64 97 129 142 159 159 128 42 296 330 346 7 19 38 66 83 92 101 116 115 114 116 115 111 112 114 113 111
185 194 193 111 59 61 80 57 61 73 105 93 93 52 59 54 41 34 22 29 40 43 73 54 97 136 166 176 181 183 190 199 206 214 303 312 320 112 114 120 119 125 126 120 119 121 121 114 110 109 109 109 108 103
119 138 108 76 67 63 67 50 80 82 74 90 66 56 53 47 31 17 17 39 56 37 100 121 114 129 152 175 184 184 194 209 221 241 214 202 180 158 161 146 136 139 133 129 121 113 112 110 106 104 100 94 83 65
109 108 64 53 80 54 44 55 78 45 84 69 69 73 43 55 9 8 77 59 99 39 182 172 182 182 180 181 188 199 205 201 207 196 195 194 188 171 159 149 143 140 133 129 126 119 115 111 112 112 58 331 326 330
80 55 36 41 38 61 46 38 49 60 73 55 75 105 59 15 354 36 78 352 261 304 215 197 186 176 180 185 195 195 185 186 184 182 182 175 176 166 161 155 149 150 150 154 149 148 284 303 302 307 314 315 313 313
83 15 22 16 24 35 40 31 12 51 68 20 66 61 28 354 2 352 305 307 226 212 188 178 187 202 205 201 189 181 180 177 174 180 177 172 174 171 171 167 176 176 187 224 266 281 297 298 300 306 310 312 313 312
67 16 35 9 18 37 10 59 34 41 30 61 44 334 355 6 310 258 239 213 194 188 181 178 177 178 189 194 187 176 173 174 172 176 186 182 180 189 189 196 222 243 258 275 285 290 294 299 303 306 308 309 311 309
58 11 26 31 34 61 77 65 62 50 60 51 1 1 8 2 265 250 241 202 189 185 184 184 184 187 187 182 182 180 175 174 180 183 195 204 213 221 233 245 257 272 277 285 292 298 301 301 303 304 306 307 308 305
70 35 49 2 44 39 92 48 34 45 27 24 310 252 184 218 276 266 210 195 189 186 184 186 187 185 182 179 179 182 188 195 204 207 215 231 241 246 253 263 271 282 280 285 293 299 302 303 304 303 303 306 309 306
48 12 27 30 51 51 51 65 296 269 254 198 259 270 267 258 269 248 207 198 191 189 188 187 187 191 196 199 200 203 208 215 225 234 245 258 265 268 269 272 276 282 285 289 294 298 300 302 303 304 306 307 307 308
25 19 78 62 77 22 7 359 357 322 257 246 268 283 284 284 280 211 206 204 203 200 199 201 200 203 212 223 227 230 238 244 246 249 255 261 266 272 273 277 281 285 290 295 297 297 297 299 300 299 300 302 303 303
0 28 76 58 94 52 328 325 311 307 277 275 267 260 279 295 279 244 223 214 212 213 215 215 216 218 230 240 247 250 254 256 255 257 260 264 271 278 282 285 287 289 293 297 299 301 302 301 301 301 301 300 301 301
30 47 55 89 266 293 331 344 268 272 267 264 266 277 295 300 279 244 231 220 224 227 225 231 236 243 249 249 252 255 257 260 263 267 271 275 277 279 282 286 291 295 298 299 300 300 300 300 299 299 300 301 303 305
59 57 57 52 354 313 319 346 311 295 254 258 260 273 270 264 256 256 242 232 229 229 233 235 237 245 252 254 256 259 264 267 270 275 279 282 286 288 289 292 294 296 297 298 297 297 297 297 297 299 301 304 306 307